Погода в Эз-Зубайре

Ирак     30°23′43″N   47°41′28″E
темп.,
°C
ветер,
м/с
пор.,
м/с
влажн.,
%
обл.,
%
осадки,
мм/ч
давл.,
гПа
погр.,
м
14 апреля, ср
ср1400:00+27юз57414 0.0 1013346
03:00+24ссз611250 0.0 1013389
06:00+22сз610190 0.0 1014326
09:00+27сз89140 0.0 1015582
12:00+32сз87104 0.0 10131484
15:00+34сз98922 0.0 10112347
18:00+31сз9109100 0.0 10121002
21:00+27ссз913110 0.0 1014512
15 апреля, чт
чт1500:00+24сз813150 0.0 1014482
03:00+21зсз612190 0.0 1014348
06:00+20зсз510220 0.0 1015272
09:00+26сз810140 0.0 1016872
12:00+30сз8974 0.0 10141576
15:00+33сз9961 0.0 10112109
18:00+31сз81070 0.0 1011931
21:00+27сз612110 0.0 1013399
16 апреля, пт
пт1600:00+25сз612150 0.0 1012333
03:00+22зсз612170 0.0 1012268
06:00+22зсз613200 0.0 1013265
09:00+29сз1012130 0.0 10141028
12:00+33сз121390 0.0 10122052
15:00+35сз121382 0.0 10102552
18:00+32сз91397 0.0 10101048
21:00+28сз6121378 0.0 1011462
17 апреля, сб
сб1700:00+26зсз6111653 0.0 1011295
03:00+25сз71418100 0.0 1010353
06:00+24зсз81621100 0.0 1013405
09:00+30сз91312100 0.0 1013926
12:00+35сз1114791 0.0 10122462
15:00+37сз1213798 0.0 10103246
18:00+35сз812899 0.0 10101214
21:00+31сз61210100 0.0 1012446
18 апреля, вс
вс1800:00+29зсз51114100 0.0 1012336
03:00+27зсз6131899 0.0 1012306
06:00+27зсз71520100 0.0 1013367
09:00+32сз10121485 0.0 1014964
12:00+38сз111280 0.0 10122714
15:00+39сз111170 0.0 10103860
18:00+37сз91280 0.0 1010986
21:00+33сз814120 0.0 1012584